Regional Weather Roundup
Issued by NWS

Home | Current Version | Previous Version | Graphics & Text | Print | Product List | Glossary Off
Versions: 1 2 3 4 5 6 7 8 9 10 11 12 13 14 15 16 17 18 19 20 21 22 23 24 25 26 27 28 29 30 31 32 33 34 35 36 37 38 39 40 41 42 43 44 45 46 47 48 49 50

000
ASUS43 KMKX 281711
RWRWI

WISCONSIN REGIONAL WEATHER ROUNDUP
NATIONAL WEATHER SERVICE MILWAUKEE/SULLIVAN WI
1100 AM CST WED JAN 28 2015

NOTE: "FAIR" INDICATES FEW OR NO CLOUDS BELOW 12,000 FEET WITH NO
SIGNIFICANT WEATHER AND/OR OBSTRUCTIONS TO VISIBILITY.

WIZ001-002-006>008-014>016-023>028-281800-
NORTHWEST WISCONSIN

CITY           SKY/WX    TMP DP  RH WIND       PRES   REMARKS
SUPERIOR ARPT  CLOUDY    28  23  81 SE5       29.98F WCI  23
ASHLAND        CLOUDY    29  22  75 S6        30.00F WCI  23
HAYWARD        CLOUDY    26  22  84 SE10      29.97F FOG     WCI  16
SIREN          CLOUDY    27  23  84 SE12G18   29.96F FOG     WCI  17
CUMBERLAND     CLOUDY    27  23  86 SE16      29.97F FOG     WCI  14
RICE LAKE      CLOUDY    26  23  88 SE16      30.01F FOG     WCI  14
CHETEK         CLOUDY    26  23  89 SE13G18   30.01F FOG     WCI  15
LADYSMITH      CLOUDY    28  24  88 SE10      30.04F FOG     WCI  18
EAU CLAIRE     CLOUDY    27  22  81 SE15      30.03F HAZE    WCI  15
MENOMONIE      CLOUDY    28  24  88 SE15      30.02F FOG     WCI  16
NEW RICHMOND   CLOUDY    27  23  86 SE12G17   29.97F FOG     WCI  16
OSCEOLA        CLOUDY    28  24  88 SE14      29.99F FOG     WCI  16
$$

WIZ003>005-009-010-017-018-281800-
NORTH CENTRAL WISCONSIN

CITY           SKY/WX    TMP DP  RH WIND       PRES   REMARKS
MANITOWISH WTR CLOUDY    24  22  92 S13       30.02S FOG     WCI  12
ARBOR VITAE    CLOUDY    25  22  88 S10G17    30.03S FOG     WCI  14
WOODRUFF       CLOUDY    25  22  88 S10G17    30.03S FOG     WCI  14
RHINELANDER    CLOUDY    23  19  85 S9G18     30.05F FOG     WCI  13
EAGLE RIVER    CLOUDY    24  19  82 S10G17    30.04S WCI  13
LAND O LAKES   CLOUDY    26  22  85 S9        30.03F WCI  17
PHILLIPS       CLOUDY    24  22  92 S13       30.01F FOG     WCI  12
TOMAHAWK       CLOUDY    24  21  86 S8        30.06F FOG     WCI  16
MEDFORD        CLOUDY    23  21  93 SE10      30.04F FOG     WCI  12
MERRILL        CLOUDY    27  21  79 S12       30.08S WCI  16
$$

WIZ029-030-035-036-043>047-281800-
CENTRAL WISCONSIN

CITY           SKY/WX    TMP DP  RH WIND       PRES   REMARKS
WAUSAU         CLOUDY    25  20  81 S17       30.08F WCI  12
MOSINEE        CLOUDY    25  21  86 SE14      30.09F WCI  13
MARSHFIELD     CLOUDY    24  21  88 S16       30.07F FOG     WCI  11
STEVENS POINT  CLOUDY    24  19  82 S14       30.12F WCI  12
WAUPACA        PTSUNNY   30  20  66 SE14      30.15F WCI  20
WAUTOMA        CLOUDY    28  21  75 S13G22    30.14F WCI  17
WISC RAPIDS    CLOUDY    25  20  81 S12       30.13S WCI  14
CAMP DOUGLAS   CLOUDY    27  27 100 SE10      30.10F FOG     WCI  17
$$

WIZ011>013-019>022-031-037>040-048>050-281800-
NORTHEAST WISCONSIN

CITY           SKY/WX    TMP DP  RH WIND       PRES   REMARKS
ANTIGO         CLOUDY    24  19  83 S16G23    30.08F WCI  11
SHAWANO        CLOUDY    31  20  63 S6G16     30.16F WCI  25
OCONTO         CLOUDY    28  21  73 MISG      30.19F
STURGEON BAY   CLOUDY    28  19  69 S10       30.21F WCI  19
GREEN BAY      CLOUDY    28  21  75 S10       30.18F WCI  19
MANITOWOC      CLOUDY    32  25  75 SW12        N/A  WCI  23
APPLETON       CLOUDY    27  19  74 S15       30.17F WCI  15
CLINTONVILLE   CLOUDY    28  19  69 S10       30.16F WCI  19
OSHKOSH        PTSUNNY   28  19  69 S13       30.17F WCI  17
$$

WIZ032>034-041-042-053>061-281800-
SOUTHWEST WISCONSIN

CITY           SKY/WX    TMP DP  RH WIND       PRES   REMARKS
LA CROSSE      CLOUDY    30  24  78 SE13      30.08F HAZE    WCI  20
SPARTA         CLOUDY    28  24  85 SE10      30.10F FOG     WCI  18
VIROQUA        CLOUDY    26  26 100 SE12G20   30.06F WCI  16
BOSCOBEL       CLOUDY    31  24  75 S5        30.12F HAZE    WCI  26
PRAIRIE DU CHI CLOUDY    31  24  74 SE12G22   30.08F WCI  22
PLATTEVILLE    PTSUNNY   30  24  78 SE18G24   30.10F WCI  18
$$

WIZ056-057-062-063-064-067-068-281800-
SOUTH CENTRAL WISCONSIN

CITY           SKY/WX    TMP DP  RH WIND       PRES   REMARKS
REEDSBURG      CLOUDY    26  23  90 S9        30.12F FOG     WCI  16
BARABOO/DELLS  CLOUDY    26  23  89 S14       30.12F FOG     WCI  14
LONE ROCK      CLOUDY    29  24  82 S9        30.14S HAZE    WCI  20
MINERAL POINT  PTSUNNY   30  27  86 SE20G26   30.09F WCI  18
MADISON        PTSUNNY   28  21  75 S15       30.14F WCI  16
MIDDLETON      CLOUDY    30  23  75 S14       30.14F WCI  20
WATERTOWN      MOSUNNY   29  20  69 S12       30.16F WCI  19
MONROE         PTSUNNY   28  25  86 S17G25    30.13F WCI  16
JANESVILLE     SUNNY     30  19  64 S14G20    30.18F WCI  20
$$

WIZ051-052-058>065-066-070>072-281800-
SOUTHEAST WISCONSIN

CITY           SKY/WX    TMP DP  RH WIND       PRES   REMARKS
MILWAUKEE      PTSUNNY   31  20  63 S13       30.22F WCI  21
WAUKESHA       SUNNY     28  19  69 SE14      30.20F WCI  17
MILWAUKEE/TIMM SUNNY     30  19  64 S9        30.23F WCI  22
RACINE         MOSUNNY   30  18  60 S14       30.24F WCI  19
BURLINGTON     MOSUNNY   29  19  65 S13       30.20F WCI  19
KENOSHA        MOSUNNY   31  19  61 S9        30.22F WCI  23
FOND DU LAC    PTSUNNY   28  19  69 S17       30.17F WCI  16
SHEBOYGAN      CLOUDY    30  23  75 S17       30.20F WCI  18
WEST BEND      MOSUNNY   30  21  69 S10G16    30.19F WCI  21
JUNEAU         PTSUNNY   27  20  73 SE14      30.17F WCI  16
$$

LSZ147-162-281800-
LAKE SUPERIOR

STATION/POSITION TIME  TEMP    WIND        PRES    WAVE
                       AIR SEA DIR/SP/G            HT/PER
                 (UTC) (F)     (DEG/KT/KT) (MB)    (FT/S)
DEVILS ISLAND    1700   28     160/  7/ 10 1017.1F
PORT WING        1640   29     110/  2/  6 1015.9F
SAXON HARBOR     1600   29     160/  2/  5 1016.6F
$$

LMZ867-665-643>646-281800-
LAKE MICHIGAN

STATION/POSITION TIME  TEMP    WIND        PRES    WAVE
                       AIR SEA DIR/SP/G            HT/PER
                 (UTC) (F)     (DEG/KT/KT) (MB)    (FT/S)
NORTHPORT PIER   1606   27     200/  3/  7 1023.7S
SISTER BAY       1613   30     220/  9/ 10   N/A
KEWAUNEE LAKESHO 1600   28                   N/A
SHEBOYGAN LAKESH 1700   30     190/ 15/ 17 1024.0F
PORT WASHINGTON  1600   31     200/ 10/ 14 1024.7
MILWAUKEE LAKESH 1600   28     210/  9/ 11   N/A
KENOSHA   LAKESH 1700   29     170/ 14/ 16 1023.4F
$$

TC  - TEMPERATURE IN CELSIUS
VSB - VISIBILITY IN STATUTE MILES
WCI - WIND CHILL INDEX
HX  - HEAT INDEX



USA.gov is the U.S. government's official web portal to all federal, state and local government web resources and services.